Aérodrome :







RETROUVEZ-NOUS SUR...

 
LOGIN :

S'inscrire | Disclaimer

   EN    FR    IT 

 









Légende :    VFR   VFR Marginal   IFR   IFR Intensif   IFR Très Intensif
Visi : 
Plafond : 
>= 8 km
>= 3000ft
5 à 8 km
1000 à 3000 ft
1500m à 5 km
500 à 1000 ft
800 à 1500m
200 à 500 ft
< 800m
< 200 ft
Symboles :   Orages  Brouillard  Fortes neiges  Fortes précipitations  Vent > 20 kt






- Altitude de l'aérodrome : 76 ft
- Code IATA : EGS


BIEG - Egilsstaðir

DERNIER METAR :
  • 090300Z 09002KT 9999 FEW045 BKN063 10/03 Q1008

METARs EXPIRÉS :
  • 090200Z 11003KT 9999 FEW045 BKN082 09/04 Q1008
  • 090100Z 15005KT 9999 FEW045 BKN085 10/04 Q1008

TAF TAF BIEG
Valide du 09 à 03h jusqu'au 10 à 03h UTC


090100Z 0903/1003 29006KT 9999 SCT035 TX13/0916Z TN08/0905Z
BECMG 0904/0906 31016G26KT



MET'MAP, la Météo Aéronautique d'un coup d'oeil ! - Copyright ORBIFLY Décembre 2007 - Disclaimer

ORBIFLY MET'MAP TEAM :

Programmation & Développement : Alexandra Zaïnal
Sur une idée originale de : Baudouin d'Aumeries
Assistance à la programmation : Marc-Olivier Méhu
Soutien technique & logistique : Manuel Goepfert

Contact : metmap@orbifly.com




SOURCES & CREDITS :

   NOAA